<?xml version="1.0" encoding="UTF-8"?>
<gpx
version="1.1"
creator="Kashmir3D 9.350 - http://www.kashmir3d.com"
xmlns:xsi="http://www.w3.org/2001/XMLSchema-instance"
xmlns="http://www.topografix.com/GPX/1/1"
xmlns:kashmir3d="http://www.kashmir3d.com/namespace/kashmir3d"
xsi:schemaLocation="http://www.topografix.com/GPX/1/1 http://www.topografix.com/GPX/1/1/gpx.xsd
	http://www.kashmir3d.com/namespace/kashmir3d http://www.kashmir3d.com/namespace/kashmir3d.xsd">
<trk>
 <name>HACHIJOUGANSAN.KML(八丈岩山)</name>
 <number>1</number>
 <extensions>
 <kashmir3d:line_color>0000ff</kashmir3d:line_color>
 <kashmir3d:line_size>3</kashmir3d:line_size>
 <kashmir3d:line_style>1</kashmir3d:line_style>
 <kashmir3d:icon>901001</kashmir3d:icon>
 </extensions>
<trkseg>
<trkpt lat="34.847440" lon="134.681407">
 <ele>19.6</ele>
 <time>2020-03-24T14:13:08Z</time>
</trkpt>
<trkpt lat="34.847440" lon="134.681804">
 <ele>19.5</ele>
 <time>2020-03-24T14:13:08Z</time>
</trkpt>
<trkpt lat="34.847551" lon="134.681825">
 <ele>19.9</ele>
 <time>2020-03-24T14:13:08Z</time>
</trkpt>
<trkpt lat="34.847792" lon="134.681793">
 <ele>21.1</ele>
 <time>2020-03-24T14:13:08Z</time>
</trkpt>
<trkpt lat="34.847938" lon="134.681771">
 <ele>22.4</ele>
 <time>2020-03-24T14:13:08Z</time>
</trkpt>
<trkpt lat="34.848204" lon="134.681804">
 <ele>23.7</ele>
 <time>2020-03-24T14:13:08Z</time>
</trkpt>
<trkpt lat="34.848298" lon="134.681804">
 <ele>24.5</ele>
 <time>2020-03-24T14:13:08Z</time>
</trkpt>
<trkpt lat="34.848427" lon="134.681793">
 <ele>25.4</ele>
 <time>2020-03-24T14:13:08Z</time>
</trkpt>
<trkpt lat="34.848676" lon="134.681686">
 <ele>28.1</ele>
 <time>2020-03-24T14:13:08Z</time>
</trkpt>
<trkpt lat="34.848890" lon="134.681643">
 <ele>30.9</ele>
 <time>2020-03-24T14:13:09Z</time>
</trkpt>
<trkpt lat="34.849131" lon="134.681610">
 <ele>33.3</ele>
 <time>2020-03-24T14:13:09Z</time>
</trkpt>
<trkpt lat="34.849483" lon="134.681653">
 <ele>36.3</ele>
 <time>2020-03-24T14:13:09Z</time>
</trkpt>
<trkpt lat="34.849774" lon="134.681686">
 <ele>38.3</ele>
 <time>2020-03-24T14:13:09Z</time>
</trkpt>
<trkpt lat="34.850015" lon="134.681750">
 <ele>39.6</ele>
 <time>2020-03-24T14:13:09Z</time>
</trkpt>
<trkpt lat="34.850221" lon="134.681825">
 <ele>41</ele>
 <time>2020-03-24T14:13:09Z</time>
</trkpt>
<trkpt lat="34.850444" lon="134.681911">
 <ele>43.8</ele>
 <time>2020-03-24T14:13:09Z</time>
</trkpt>
<trkpt lat="34.850598" lon="134.682018">
 <ele>45.7</ele>
 <time>2020-03-24T14:13:09Z</time>
</trkpt>
<trkpt lat="34.850813" lon="134.682093">
 <ele>47.8</ele>
 <time>2020-03-24T14:13:09Z</time>
</trkpt>
<trkpt lat="34.851045" lon="134.682168">
 <ele>50.6</ele>
 <time>2020-03-24T14:13:09Z</time>
</trkpt>
<trkpt lat="34.851225" lon="134.682254">
 <ele>53</ele>
 <time>2020-03-24T14:13:10Z</time>
</trkpt>
<trkpt lat="34.851336" lon="134.682286">
 <ele>55.7</ele>
 <time>2020-03-24T14:13:10Z</time>
</trkpt>
<trkpt lat="34.851448" lon="134.682319">
 <ele>61.4</ele>
 <time>2020-03-24T14:13:10Z</time>
</trkpt>
<trkpt lat="34.851628" lon="134.682447">
 <ele>70.7</ele>
 <time>2020-03-24T14:13:10Z</time>
</trkpt>
<trkpt lat="34.851826" lon="134.682576">
 <ele>81.4</ele>
 <time>2020-03-24T14:13:10Z</time>
</trkpt>
<trkpt lat="34.852057" lon="134.682662">
 <ele>91.7</ele>
 <time>2020-03-24T14:13:10Z</time>
</trkpt>
<trkpt lat="34.852281" lon="134.682866">
 <ele>90.9</ele>
 <time>2020-03-24T14:13:10Z</time>
</trkpt>
<trkpt lat="34.852487" lon="134.683048">
 <ele>99.2</ele>
 <time>2020-03-24T14:13:10Z</time>
</trkpt>
<trkpt lat="34.852607" lon="134.683080">
 <ele>105.4</ele>
 <time>2020-03-24T14:13:10Z</time>
</trkpt>
<trkpt lat="34.852693" lon="134.683080">
 <ele>110.7</ele>
 <time>2020-03-24T14:13:11Z</time>
</trkpt>
<trkpt lat="34.852830" lon="134.683027">
 <ele>115.6</ele>
 <time>2020-03-24T14:13:11Z</time>
</trkpt>
<trkpt lat="34.852967" lon="134.682855">
 <ele>124.5</ele>
 <time>2020-03-24T14:13:11Z</time>
</trkpt>
<trkpt lat="34.853079" lon="134.682630">
 <ele>133.9</ele>
 <time>2020-03-24T14:13:11Z</time>
</trkpt>
<trkpt lat="34.853199" lon="134.682437">
 <ele>143.9</ele>
 <time>2020-03-24T14:13:11Z</time>
</trkpt>
<trkpt lat="34.853328" lon="134.682222">
 <ele>154.9</ele>
 <time>2020-03-24T14:13:11Z</time>
</trkpt>
<trkpt lat="34.853465" lon="134.682007">
 <ele>166.4</ele>
 <time>2020-03-24T14:13:11Z</time>
</trkpt>
<trkpt lat="34.853586" lon="134.681797">
 <ele>172.1</ele>
 <time>2020-03-24T14:13:11Z</time>
</trkpt>
<trkpt lat="34.853465" lon="134.682007">
 <ele>166.4</ele>
 <time>2020-03-24T14:13:11Z</time>
</trkpt>
<trkpt lat="34.853328" lon="134.682222">
 <ele>154.9</ele>
 <time>2020-03-24T14:13:11Z</time>
</trkpt>
<trkpt lat="34.853199" lon="134.682437">
 <ele>143.9</ele>
 <time>2020-03-24T14:13:12Z</time>
</trkpt>
<trkpt lat="34.853079" lon="134.682630">
 <ele>133.9</ele>
 <time>2020-03-24T14:13:12Z</time>
</trkpt>
<trkpt lat="34.852967" lon="134.682855">
 <ele>124.5</ele>
 <time>2020-03-24T14:13:12Z</time>
</trkpt>
<trkpt lat="34.852830" lon="134.683027">
 <ele>115.6</ele>
 <time>2020-03-24T14:13:12Z</time>
</trkpt>
<trkpt lat="34.852693" lon="134.683080">
 <ele>110.7</ele>
 <time>2020-03-24T14:13:12Z</time>
</trkpt>
<trkpt lat="34.852607" lon="134.683080">
 <ele>105.4</ele>
 <time>2020-03-24T14:13:12Z</time>
</trkpt>
<trkpt lat="34.852487" lon="134.683048">
 <ele>99.2</ele>
 <time>2020-03-24T14:13:12Z</time>
</trkpt>
<trkpt lat="34.852281" lon="134.682866">
 <ele>90.9</ele>
 <time>2020-03-24T14:13:12Z</time>
</trkpt>
<trkpt lat="34.852057" lon="134.682662">
 <ele>91.7</ele>
 <time>2020-03-24T14:13:12Z</time>
</trkpt>
<trkpt lat="34.851826" lon="134.682576">
 <ele>81.4</ele>
 <time>2020-03-24T14:13:12Z</time>
</trkpt>
<trkpt lat="34.851628" lon="134.682447">
 <ele>70.7</ele>
 <time>2020-03-24T14:13:13Z</time>
</trkpt>
<trkpt lat="34.851448" lon="134.682319">
 <ele>61.4</ele>
 <time>2020-03-24T14:13:13Z</time>
</trkpt>
<trkpt lat="34.851336" lon="134.682286">
 <ele>55.7</ele>
 <time>2020-03-24T14:13:13Z</time>
</trkpt>
<trkpt lat="34.851225" lon="134.682254">
 <ele>53</ele>
 <time>2020-03-24T14:13:13Z</time>
</trkpt>
<trkpt lat="34.851045" lon="134.682168">
 <ele>50.6</ele>
 <time>2020-03-24T14:13:13Z</time>
</trkpt>
<trkpt lat="34.850813" lon="134.682093">
 <ele>47.8</ele>
 <time>2020-03-24T14:13:13Z</time>
</trkpt>
<trkpt lat="34.850598" lon="134.682018">
 <ele>45.7</ele>
 <time>2020-03-24T14:13:13Z</time>
</trkpt>
<trkpt lat="34.850444" lon="134.681911">
 <ele>43.8</ele>
 <time>2020-03-24T14:13:13Z</time>
</trkpt>
<trkpt lat="34.850221" lon="134.681825">
 <ele>41</ele>
 <time>2020-03-24T14:13:13Z</time>
</trkpt>
<trkpt lat="34.850015" lon="134.681750">
 <ele>39.6</ele>
 <time>2020-03-24T14:13:14Z</time>
</trkpt>
<trkpt lat="34.849774" lon="134.681686">
 <ele>38.3</ele>
 <time>2020-03-24T14:13:14Z</time>
</trkpt>
<trkpt lat="34.849483" lon="134.681653">
 <ele>36.3</ele>
 <time>2020-03-24T14:13:14Z</time>
</trkpt>
<trkpt lat="34.849131" lon="134.681610">
 <ele>33.3</ele>
 <time>2020-03-24T14:13:14Z</time>
</trkpt>
<trkpt lat="34.848890" lon="134.681643">
 <ele>30.9</ele>
 <time>2020-03-24T14:13:14Z</time>
</trkpt>
<trkpt lat="34.848676" lon="134.681686">
 <ele>28.1</ele>
 <time>2020-03-24T14:13:14Z</time>
</trkpt>
<trkpt lat="34.848427" lon="134.681793">
 <ele>25.4</ele>
 <time>2020-03-24T14:13:14Z</time>
</trkpt>
<trkpt lat="34.848298" lon="134.681804">
 <ele>24.5</ele>
 <time>2020-03-24T14:13:14Z</time>
</trkpt>
<trkpt lat="34.848204" lon="134.681804">
 <ele>23.7</ele>
 <time>2020-03-24T14:13:14Z</time>
</trkpt>
<trkpt lat="34.847938" lon="134.681771">
 <ele>22.4</ele>
 <time>2020-03-24T14:13:15Z</time>
</trkpt>
<trkpt lat="34.847792" lon="134.681793">
 <ele>21.1</ele>
 <time>2020-03-24T14:13:15Z</time>
</trkpt>
<trkpt lat="34.847551" lon="134.681825">
 <ele>19.9</ele>
 <time>2020-03-24T14:13:15Z</time>
</trkpt>
<trkpt lat="34.847440" lon="134.681804">
 <ele>19.5</ele>
 <time>2020-03-24T14:13:15Z</time>
</trkpt>
<trkpt lat="34.847440" lon="134.681407">
 <ele>19.6</ele>
 <time>2020-03-24T14:13:15Z</time>
</trkpt>
</trkseg>
</trk>
</gpx>

